map of ALG home
ALG - Airport
Location
City:  Algiers, Boumerdès, Algeria
Name:Houari Boumediene Airport
Old (Alt.):Algiers Airport
ICAO:DAAG
IATA:ALG

Details
Type:Airport (Aerodrome, Airfield)
Use:Public/Civil, International (customs port of entry)
Latitude:36°41'40"N (36.694444)
Longitude:3°13'01"E (3.216944)
Elevation:82 ft (25 m)
Variation:1.11°E (WMM2015 magnetic declination)
0.10° annual change
Runways:2
Longest:11483 × 197 ft (3500 × 60 m), paved

Time
Time Zone:UTC+1
Local Time:

Weather
METAR:DAAG 221830Z 04008KT 9999 FEW026 25/19 Q1015
TAF:DAAG 221700Z 2218/2318 04012KT 9999 FEW026
BECMG 2220/2224 VRB02KT PROB30
TEMPO 2301/2305 4000 BR BKN015
BECMG 2306/2309 05010KT

Related Locations
Nearby:
Farthest:GIS: 12123 mi / 19510 km
Gisborne, GIS, NZ

Find:

   beyond  
but within

Other Information
Maps:
NOTAMs:
Links:
Sources:

  
  • flag of Algeria
  

Sectional Chart

Flight Planning
at skyvector.com

Satellite Image

Google Maps Satellite view

 

Copyright © 2004-2018 Karl L. Swartz. All rights reserved.
The Great Circle Mapper name and logo are trademarks of the Great Circle Mapper.
All other trademarks mentioned herein belong to their respective owners.
Please see credits for attibutions and further copyright information.

  Follow gcmap on Facebook Follow gcmap on Twitter Follow gcmap on Google+ GCmap on LinkedIn

hCard Microformat

Geo Microformat